Regional Weather Roundup
Issued by NWS

Home | Current Version | Previous Version | Graphics & Text | Print | Product List | Glossary On
Versions: 1 2 3 4 5 6 7 8 9 10 11 12 13 14 15 16 17 18 19 20 21 22 23 24 25 26 27 28 29 30 31 32 33 34 35 36 37 38 39 40 41 42 43 44 45 46 47 48 49 50
000
ASUS43 KIND 021209
RWRIN

WEATHER ROUNDUP FOR INDIANA
NATIONAL WEATHER SERVICE INDIANAPOLIS IN
700 AM EST MON MAR 02 2015

NOTE: "FAIR" INDICATES FEW OR NO CLOUDS BELOW 12,000 FEET WITH NO
SIGNIFICANT WEATHER AND/OR OBSTRUCTIONS TO VISIBILITY.

* - STATION DOES NOT REPORT WEATHER SUCH AS PRECIPITATION OR FOG.

+ - STATION NOT QUALITY CONTROLLED BY THE NATIONAL WEATHER SERVICE.
    USE DATA WITH CAUTION...ESPECIALLY DEWPOINT AND RELATIVE
    HUMIDITY OBSERVATIONS.

INZ001>003-010>013-019-020-021300-
NORTHWEST INDIANA

CITY           SKY/WX    TMP DP  RH WIND       PRES   REMARKS
GARY /AIRPORT/ CLEAR     14   5  67 W8        30.47R WCI   3
KNOX *+          N/A      5  -4  66 W9        30.45R WCI  -9
LA PORTE +     PTCLDY    12   8  85 W5        30.44R WCI   4
6HR MIN TEMP:   7; 6HR MAX TEMP:  21;

MICHIGAN CITY+ PTCLDY    14   7  73 SW6       30.45R WCI   5
MONTICELLO +   MOCLDY     4   2  90 W5        30.47R WCI  -5
6HR MIN TEMP:   2; 6HR MAX TEMP:  16;

RENSSELAER +   MOCLDY     9   7  92 W7        30.47S FOG     WCI  -3
VALPARAISO     PTCLDY     8   4  83 W7        30.45R WCI  -3
6HR MIN TEMP:   8; 6HR MAX TEMP:  16;


$$

LMZ046-743>745-021300-
SOUTHERN LAKE MICHIGAN

STATION/POSITION TIME  TEMP WIND        PRES
                       AIR  DIR/SP/G
                 (UTC) (F)  (DEG/KT/KT) (MB)
MICHIGAN CITY    1200   17  250/ 10/ 11   N/A

$$

INZ004-005-014>016-021>024-021300-
NORTH CENTRAL INDIANA

CITY           SKY/WX    TMP DP  RH WIND       PRES   REMARKS
ELKHART        CLEAR     10   5  79 SW5       30.42  WCI   2
GOSHEN         PTCLDY     9   5  84 W7        30.42R WCI  -2
6HR MIN TEMP:   9; 6HR MAX TEMP:  18;

LOGANSPORT +   MOCLDY     7   5  92 W7        30.47R WCI  -5
PERU/GRISSOM   CLEAR      4   1  87 W7        30.44R WCI  -8
6HR MIN TEMP:   3; 6HR MAX TEMP:  13;

ROCHESTER +    MOCLDY    12  10  92 W6        30.45R WCI   3
SOUTH BEND     PTCLDY    11   6  81 W8        30.43R WCI  -1
6HR MIN TEMP:  11; 6HR MAX TEMP:  19;

WARSAW +       PTCLDY    10   9  92 W5        30.43R WCI   2

$$

INZ006>009-017-018-025>027-021300-
NORTHEAST INDIANA

CITY           SKY/WX    TMP DP  RH WIND       PRES   REMARKS
ANGOLA *+      CLEAR      5   3  92 SW5       30.39R WCI  -4
FORT WAYNE     MOCLDY     7   4  87 W7        30.43R WCI  -5
6HR MIN TEMP:   3; 6HR MAX TEMP:  16;

HUNTINGTON +   PTCLDY    10   4  79 W7        30.43S WCI  -2
6HR MIN TEMP:   9; 6HR MAX TEMP:  17;


$$

INZ028-029-035-036-043>045-051>053-021300-
WEST CENTRAL INDIANA

CITY           SKY/WX    TMP DP  RH WIND       PRES   REMARKS
CRAWFORDSVL +  MOCLDY    10   4  74 CALM      30.48R
6HR MIN TEMP:  10; 6HR MAX TEMP:  19;

GREENCASTLE +  MOCLDY    19   9  63 CALM      30.49R
LAFAYETTE      MOCLDY    11   8  88 CALM      30.49R
6HR MIN TEMP:  10; 6HR MAX TEMP:  17;

TERRE HAUTE    MOCLDY    18  12  77 CALM      30.51R
6HR MIN TEMP:  18; 6HR MAX TEMP:  23;


$$

INZ030>032-037>040-046>048-054>057-064-065-021300-
CENTRAL INDIANA

CITY           SKY/WX    TMP DP  RH WIND       PRES   REMARKS
CP ATTERBURY + MOCLDY    21  12  68 N5        30.50R WCI  15
FRANKFORT +    MOCLDY     9   6  90 S7        30.48R WCI  -3
6HR MIN TEMP:   8; 6HR MAX TEMP:  19;

GREENWOOD *+   MOCLDY    18   9  68 NW3       30.47S
INDIANAPOLIS   MOCLDY    15   8  73 NW5       30.47R WCI   8
6HR MIN TEMP:  15; 6HR MAX TEMP:  22;

-EAGLE CREEK   MOCLDY    15   9  76 CALM      30.47R
6HR MIN TEMP:  15; 6HR MAX TEMP:  21;

KOKOMO *+      CLOUDY     9   1  72 W6        30.46R WCI  -1
6HR MIN TEMP:   9; 6HR MAX TEMP:  18;

MARION +       MOCLDY     7   3  86 W3        30.46S
MT COMFORT *+  MOCLDY    16   3  57 NW5       30.47S WCI   9
SHELBYVILLE    MOCLDY    18   9  68 N6        30.47R WCI  10
6HR MIN TEMP:  18; 6HR MAX TEMP:  25;

ZIONSVILLE +   MOCLDY    14   8  76 W5        30.47R WCI   6
6HR MIN TEMP:  14; 6HR MAX TEMP:  20;


$$

INZ033-034-041-042-049-050-058-059-021300-
EAST CENTRAL INDIANA

CITY           SKY/WX    TMP DP  RH WIND       PRES   REMARKS
MUNCIE         MOCLDY    14   9  80 W5        30.44S WCI   6
6HR MIN TEMP:  14; 6HR MAX TEMP:  19;


$$

INZ060-061-067>069-081>083-085>088-021300-
SOUTHWEST INDIANA

CITY           SKY/WX    TMP DP  RH WIND       PRES   REMARKS
EVANSVILLE     CLEAR     24  18  77 N5        30.54R WCI  18
6HR MIN TEMP:  24; 6HR MAX TEMP:  30;

HUNTINGBURG *+ PTCLDY    21  16  79 N5        30.53R WCI  15
6HR MIN TEMP:  21; 6HR MAX TEMP:  28;

WASHINGTON +   MOCLDY    17  12  82 NW3       30.53R
6HR MIN TEMP:  16; 6HR MAX TEMP:  25;


$$

INZ062-063-066-070>080-084-089>092-021300-
SOUTH CENTRAL AND SOUTHEAST INDIANA

CITY           SKY/WX    TMP DP  RH WIND       PRES   REMARKS
BLOOMINGTON    MOCLDY    16  13  88 CALM      30.48R
6HR MIN TEMP:  16; 6HR MAX TEMP:  25;

NORTH VERNON + FAIR      21  19  93 NW5       30.49R WCI  15
SEYMOUR +      PTCLDY    21  16  79 CALM      30.50R

$$



USA.gov is the U.S. government's official web portal to all federal, state and local government web resources and services.